sat.trackr.live / text

‹ back to catalog

XINGYUN-2 02

NORAD 45603 · 2020-028B

PAYLOAD ACTIVE UNKNOWN

§ Identity

Operator
Country
PRC
Launch date
2020-05-12
Launch site
JSC
Launch vehicle
Mass (kg)
RCS (m²)

External: N2YO · Heavens-Above · Gunter

§ Orbital elements

Epoch: 2026-09-15T00:15:07.604352Z

Period
95.25 min
Inclination
97.5109°
Eccentricity
0.0010123
Mean motion
15.11841435 rev/d
Perigee alt
523.6 km
Apogee alt
537.6 km
Semi-major
6,908.7 km
B*
1.0201e-4
RAAN
262.4591°
Arg perigee
330.9587°
Mean anomaly
29.1079°
Rev number
34,840

§ Raw data

XINGYUN-2 021 45603U 20028B   26258.01050468  .00001681  00000+0  10201-3 0  99992 45603  97.5109 262.4591 0010123 330.9587  29.1079 15.11841435348402

JSON: /api/v1/satellites/45603 · /tle

For live sub-satellite position, see the globe view (requires WebGL).

§ Visibility from observer

Set your observer location to see the next 7 days of passes ≥ 10°. The values pass through the URL so the page stays shareable.

No JS? Fill the form by hand. The geolocation button needs JavaScript.

§ Radio — SatNOGS DB

ModeDescriptionDownlinkUplink
FM S-band telemetry 1.522 GHz

1 transmitter · refreshed weekly from db.satnogs.org